Regional Weather Roundup
Issued by NWS

Home | Current Version | Previous Version | Graphics & Text | Print | Product List | Glossary Off
Versions: 1 2 3 4 5 6 7 8 9 10 11 12 13 14 15 16 17 18 19 20 21 22 23 24 25 26 27 28 29 30 31 32 33 34 35 36 37 38 39 40 41 42 43 44 45 46 47 48 49 50

000
ASUS43 KLSX 210110
RWRMO

WEATHER SUMMARY FOR MISSOURI
NATIONAL WEATHER SERVICE SPRINGFIELD MO
800 PM CDT SUN MAY 20 2018

NOTE: "FAIR" INDICATES FEW OR NO CLOUDS BELOW 12,000 FEET WITH NO
       SIGNIFICANT WEATHER AND/OR OBSTRUCTIONS TO VISIBILITY.
       CURRENT SKY AND/OR WEATHER CONDITIONS ARE NOT AVAILABLE FOR
       CHILLICOTHE AND FARMINGTON.

MOZ001>031-035>038-043-044-053-054-210200-
...NORTHERN AND WESTERN MISSOURI...

CITY           SKY/WX    TMP DP  RH WIND       PRES   REMARKS
KANSAS CTY INT CLOUDY    68  65  90 NW3       30.02S
KANSAS C DTWN  CLOUDY    70  62  76 NW7       30.00R
LEE`S SUMMIT   CLOUDY    69  66  90 NW7       30.00S
ST JOSEPH      CLOUDY    68  65  90 E5        30.02S
CHILLICOTHE      N/A     73  64  73 E3        30.01F
KIRKSVILLE     CLOUDY    73  63  70 E6        30.04S

$$
MOZ066>068-077>081-088>096-101>105-210200-
...SOUTHWEST MISSOURI...

CITY           SKY/WX    TMP DP  RH WIND       PRES   REMARKS
SPRINGFIELD    PTCLDY    68  65  90 SE7       30.02R
JOPLIN         CLOUDY    72  68  87 NW6       30.00R
BRANSON        CLOUDY    68  66  94 E6        30.04R THUNDER

$$
MOZ032>034-039>042-045>050-055>058-069>072-210200-
...CENTRAL MISSOURI...

CITY           SKY/WX    TMP DP  RH WIND       PRES   REMARKS
COLUMBIA       CLOUDY    74  67  78 SE5       30.03R THUNDER
JEFFERSON CITY CLOUDY    75  66  73 E3        30.01R THUNDER
ROLLA          CLOUDY    73  65  75 E5        30.03R
SEDALIA        CLOUDY    68  68 100 E15       30.01F
WHITEMAN AFB   CLOUDY    67  65  94 E8        29.94
WARRENSBURG    MOCLDY    70  64  83 NE3       30.00R
OSAGE BEACH    TSTM      66  65  96 S6        30.06R

$$
MOZ051-052-059>065-210200-
...EAST CENTRAL MISSOURI...

CITY           SKY/WX    TMP DP  RH WIND       PRES   REMARKS
ST LOUIS INTL  MOCLDY    77  67  71 E7        30.03R
SPIRIT OF STL  CLEAR     74  69  85 CALM      30.02R
ST CHARLES     CLEAR     75  69  81 E7        30.02R

$$
MOZ072>076-082>087-097>100-106>115-210200-
...SOUTH CENTRAL AND SOUTHEAST MISSOURI...

CITY           SKY/WX    TMP DP  RH WIND       PRES   REMARKS
CAPE GIRARDEAU FAIR      70  67  90 SE8       30.04R
FARMINGTON     PTCLDY    75  68  78 SE6       30.04S
POPLAR BLUFF   FAIR      74  70  87 E7        30.03R
WEST PLAINS    CLOUDY    77  68  73 SE8       30.03R

$$



USA.gov is the U.S. government's official web portal to all federal, state and local government web resources and services.